[[{"header":{"parameterUnit":"m.s-1","parameterCategory":1,"la1":30.2991,"la2":30.254,"lo1":-89.0895,"lo2":-89.0444,"dy":0.0017,"dx":0.0017,"nx":28,"ny":28,"refTime":"2024-02-13T09:00:00:Z","depth":0,"parameterNumber":2,"parameterNumberName":"U-component_of_WINDS"},"data":[0,0,0,0,0,0,0,0,0,0,0,0,0,0,0,0,0,0,0,0,0,0,0,0,0,0,0,0,0,0,0,0,0,0,0,0,0,0,0,0,0,0,0,0,0,0,0,0,0,0,0,0,0,0,0,0,0,0,-3.6048,-3.6049,0,-3.609,-3.6091,-3.6091,-3.595,-3.5946,-3.5942,-3.5938,-3.5981,-3.5986,-3.5991,0,0,0,0,0,0,0,0,0,0,0,0,0,-3.5845,-3.585,-3.6048,-3.6049,-3.6049,-3.609,-3.6091,-3.6091,-3.5951,-3.5946,-3.594,-3.5936,-3.5979,-3.5985,-3.5991,0,0,0,0,0,0,0,0,0,0,0,0,0,-3.5915,-3.5851,-3.6048,-3.5984,-3.5979,-3.609,-3.6091,-3.6091,-3.5952,-3.5945,-3.5939,-3.5933,-3.5977,-3.5985,-3.5992,-3.6167,0,0,-3.6016,-3.6019,0,0,0,0,0,0,0,0,-3.5911,-3.5923,-3.5993,-3.5989,-3.5983,-3.6008,-3.6035,-3.6117,-3.5954,-3.5962,-3.5937,-3.593,-3.5995,-3.6001,-3.6023,-3.6169,-3.6171,-3.6016,-3.6021,-3.6024,-3.6027,0,0,0,0,0,0,0,-3.5907,-3.592,-3.6065,-3.5994,-3.5988,-3.5953,-3.5956,-3.605,-3.6014,-3.5961,-3.5951,-3.5958,-3.5991,-3.6016,-3.6023,-3.6172,-3.6016,-3.6023,-3.6028,-3.6031,-3.6461,-3.6468,0,0,0,0,0,0,-3.591,-3.5917,-3.6063,-3.6066,-3.5931,-3.5962,-3.5965,-3.6007,-3.6013,-3.6007,-3.5963,-3.5951,-3.6006,-3.6014,-3.6024,-3.6227,-3.6024,-3.6031,-3.6036,-3.6454,-3.6463,-3.647,0,0,0,0,0,0,-3.5907,-3.5925,-3.6062,-3.5989,-3.6004,-3.5972,-3.602,-3.6011,-3.6035,-3.6014,-3.6007,-3.5995,-3.6001,-3.6013,-3.6132,-3.6227,-3.6035,-3.6042,-3.6446,-3.6457,-3.6466,-3.6637,0,0,0,0,0,0,-3.5901,-3.5924,-3.5991,-3.5991,-3.6008,-3.617,-3.6026,-3.6016,-3.6049,-3.6033,-3.6042,-3.6037,-3.5997,-3.6121,-3.614,-3.6234,-3.6048,-3.6438,-3.6451,-3.6463,-3.6623,-3.6652,-3.6677,0,0,0,0,0,-3.5895,-3.6038,-3.5995,-3.6013,-3.6091,-3.6176,-3.6185,-3.6136,-3.6057,-3.6123,-3.6109,-3.6037,-3.6214,-3.6135,-3.6154,-3.6252,-3.6432,-3.6447,-3.6462,-3.6611,-3.6646,-3.6676,0,0,0,0,0,0,-3.605,-3.6037,-3.5989,-3.6137,-3.6159,-3.6152,-3.6234,-3.6176,-3.622,-3.6204,-3.6141,-3.6144,-3.6274,-3.6275,-3.6187,-3.6421,-3.6309,-3.6329,-3.6415,-3.6449,-3.6475,-3.6472,-3.6054,0,0,0,0,0,-3.6101,-3.6172,-3.6156,-3.6288,-3.6302,-3.6267,-3.6302,-3.6262,-3.6282,-3.629,-3.6285,-3.6307,-3.6367,-3.6408,-3.6462,-3.6622,-3.6621,-3.6699,-3.6726,-3.6748,-3.6766,-3.6849,-3.6882,-3.6521,-3.652,-3.652,0,0,-3.6208,-3.621,-3.6258,-3.632,-3.6331,-3.6405,-3.6275,-3.6359,-3.6413,-3.6303,-3.6414,-3.6412,-3.6432,-3.6572,-3.6633,-3.6576,-3.6866,-3.6768,-3.6786,-3.6791,-3.6868,-3.6902,-3.6933,-3.6531,-3.6529,-3.6527,0,0,-3.644,-3.645,-3.6559,-3.6574,-3.6593,-3.6569,-3.6595,-3.6597,-3.6591,-3.6702,-3.662,-3.6683,-3.6789,-3.6806,-3.6828,-3.7066,-3.7,-3.7085,-3.7226,-3.7307,-3.7335,-3.736,-3.7443,-3.7474,-3.7103,-3.7104,-3.7104,0,-3.6571,-3.6679,-3.6623,-3.6712,-3.6741,-3.6644,-3.6754,-3.6771,-3.6808,-3.6829,-3.6766,-3.6894,-3.6901,-3.7043,-3.71,-3.7123,-3.715,-3.7083,-3.7336,-3.736,-3.7383,-3.7461,-3.7492,-3.7114,-3.7112,-3.7111,-3.711,0,-3.6837,-3.6913,-3.7,-3.7037,-3.7075,-3.7175,-3.7133,-3.7179,-3.7135,-3.7117,-3.723,-3.7235,-3.7288,-3.7318,-3.7277,-3.7454,-3.7418,-3.7347,-3.7233,-3.7428,-3.75,-3.753,-3.7128,-3.7124,-3.7121,-3.7119,0,0,-3.7169,-3.7172,-3.7205,-3.7219,-3.7233,-3.7291,-3.7385,-3.7436,-3.7476,-3.7504,-3.7581,-3.7672,-3.7605,-3.763,-3.759,-3.7662,-3.7847,-3.7581,-3.758,-3.7628,-3.8039,-3.8092,-3.8128,-3.7804,-3.7809,-3.7814,-3.8037,0,-3.7395,-3.7556,-3.7508,-3.767,-3.7738,-3.7647,-3.7729,-3.7746,-3.7732,-3.7787,-3.7771,-3.7836,-3.7744,-3.7758,-3.7825,-3.781,-3.7928,-3.7794,-3.7873,-3.7877,-3.787,-3.8166,-3.8222,-3.8432,-3.8065,-3.807,-3.8073,0,-3.7681,-3.772,-3.7889,-3.7889,-3.7916,-3.7991,-3.8032,-3.8087,-3.8104,-3.8088,-3.8117,-3.8061,-3.8152,-3.804,-3.8164,-3.8073,-3.8103,-3.8101,-3.8108,-3.8112,-3.7986,-3.8177,-3.8499,-3.853,-3.8118,-3.8114,-3.8111,0,-3.7904,-3.7998,-3.811,-3.8126,-3.813,-3.8184,-3.8189,-3.8199,-3.8232,-3.8269,-3.8289,-3.8337,-3.8362,-3.84,-3.8358,-3.828,-3.8488,-3.8372,-3.8476,-3.8478,-3.8523,-3.8521,-3.8853,-3.8546,-3.8546,-3.8545,-3.8544,0,-3.8161,-3.8267,-3.821,-3.8279,-3.8395,-3.8338,-3.8454,-3.8448,-3.8458,-3.8524,-3.8448,-3.8511,-3.8453,-3.851,-3.8479,-3.8585,-3.8598,-3.8587,-3.8577,-3.8593,-3.8594,-3.861,-3.8594,-3.8553,-3.8551,-3.855,-3.8548,0,-3.8429,-3.8395,-3.8511,-3.8505,-3.8505,-3.8591,-3.8585,-3.8648,-3.8628,-3.8712,-3.8728,-3.8697,-3.876,-3.8723,-3.8788,-3.8766,-3.8904,-3.8875,-3.8899,-3.889,-3.8996,-3.8986,-3.9349,-3.9393,-3.906,-3.9063,-3.9066,0,-3.8594,-3.8673,-3.8676,-3.8714,-3.8723,-3.8786,-3.8818,-3.8766,-3.8803,-3.8828,-3.8888,-3.8945,-3.8987,-3.9093,-3.9076,-3.9125,-3.9095,-3.9219,-3.9102,-3.9115,-3.9094,-3.9089,-3.9096,-3.9242,-3.9246,-3.9249,-3.9252,0,-3.8891,-3.887,-3.892,-3.8965,-3.9006,-3.9039,-3.9065,-3.9101,-3.9048,-3.9094,-3.9157,-3.9191,-3.9256,-3.9314,-3.9355,-3.9358,-3.9296,-3.9289,-3.9315,-3.9331,-3.9341,-3.9335,-3.8961,-3.928,-3.9278,-3.9276,-3.9274,-3.9273,-3.9111,-3.9176,-3.9187,-3.9245,-3.926,-3.9286,-3.9344,-3.9331,-3.9383,-3.9432,-3.9398,-3.9473,-3.9486,-3.9535,-3.9546,-3.9604,-3.9553,-3.9592,-3.9602,-3.9612,-3.9625,-3.9333,-3.9611,-3.961,-3.961,-3.9609,-3.9608,0,-3.9401,-3.9404,-3.9458,-3.9497,-3.9542,-3.948,-3.9506,-3.9548,-3.9615,-3.9632,-3.9675,-3.9748,-3.9802,-3.9789,-3.9838,-3.9886,-3.9859,-3.9901,-3.9896,-3.9897,-3.9668,-3.964,-3.9922,-3.9922,-3.9922,-3.9922,-3.9922,-3.9922,-3.9558,-3.9665,-3.9645,-3.9757,-3.9758,-3.9831,-3.9851,-3.9874,-3.9887,-3.9971,-4.0016,-4.0007,-4.0012,-4.006,-4.0107,-4.0101,-4.0122,-4.0174,-4.0158,-3.9944,-3.9913,-3.9884,-3.9856,-4.0179,-4.018,-4.0381,-4.0383,-4.0385]},{"header":{"parameterUnit":"m.s-1","parameterCategory":1,"la1":30.2991,"la2":30.254,"lo1":-89.0895,"lo2":-89.0444,"dy":0.0017,"dx":0.0017,"nx":28,"ny":28,"refTime":"2024-02-13T09:00:00:Z","depth":0,"parameterNumber":3,"parameterNumberName":"V-component_of_WINDS"},"data":[0,0,0,0,0,0,0,0,0,0,0,0,0,0,0,0,0,0,0,0,0,0,0,0,0,0,0,0,0,0,0,0,0,0,0,0,0,0,0,0,0,0,0,0,0,0,0,0,0,0,0,0,0,0,0,0,0,0,-2.5223,-2.5223,0,-2.5299,-2.53,-2.5301,-2.5295,-2.5294,-2.5293,-2.5292,-2.5368,-2.5371,-2.5374,0,0,0,0,0,0,0,0,0,0,0,0,0,-2.5068,-2.5071,-2.5222,-2.5223,-2.5224,-2.5299,-2.53,-2.5301,-2.5295,-2.5294,-2.5292,-2.5291,-2.5367,-2.5371,-2.5375,0,0,0,0,0,0,0,0,0,0,0,0,0,-2.5139,-2.5071,-2.5222,-2.523,-2.5232,-2.5299,-2.53,-2.5301,-2.5296,-2.5294,-2.5292,-2.5291,-2.5366,-2.537,-2.5375,-2.5438,0,0,-2.5389,-2.5391,0,0,0,0,0,0,0,0,-2.5135,-2.5144,-2.5228,-2.523,-2.5232,-2.5286,-2.5274,-2.5347,-2.5296,-2.5271,-2.5292,-2.529,-2.5342,-2.5349,-2.5367,-2.5442,-2.5445,-2.539,-2.5393,-2.5395,-2.5396,0,0,0,0,0,0,0,-2.513,-2.5141,-2.5253,-2.523,-2.5232,-2.5229,-2.5237,-2.5287,-2.5315,-2.5273,-2.5273,-2.5282,-2.5343,-2.5362,-2.5368,-2.5446,-2.539,-2.5394,-2.5397,-2.5398,-2.5575,-2.5576,0,0,0,0,0,0,-2.5123,-2.5137,-2.525,-2.5255,-2.5178,-2.5233,-2.5243,-2.527,-2.5315,-2.532,-2.5284,-2.5282,-2.5355,-2.5363,-2.5371,-2.5446,-2.5394,-2.5399,-2.5402,-2.5573,-2.5575,-2.5577,0,0,0,0,0,0,-2.512,-2.5133,-2.5247,-2.5196,-2.521,-2.5238,-2.5269,-2.5273,-2.5292,-2.5323,-2.5327,-2.5299,-2.5354,-2.5365,-2.5421,-2.5449,-2.5401,-2.5405,-2.557,-2.5573,-2.5576,-2.5599,0,0,0,0,0,0,-2.5116,-2.5132,-2.5157,-2.5197,-2.5213,-2.5297,-2.5271,-2.5275,-2.53,-2.5299,-2.5338,-2.5343,-2.5353,-2.5414,-2.5426,-2.5455,-2.5409,-2.5568,-2.5572,-2.5575,-2.5595,-2.5602,-2.5607,0,0,0,0,0,-2.511,-2.5161,-2.5159,-2.5172,-2.5245,-2.5299,-2.5308,-2.532,-2.5303,-2.5327,-2.5347,-2.5342,-2.5444,-2.542,-2.5433,-2.5464,-2.5566,-2.5571,-2.5575,-2.5593,-2.5601,-2.5607,0,0,0,0,0,0,-2.5124,-2.5166,-2.5164,-2.5229,-2.5261,-2.5298,-2.5329,-2.5328,-2.5364,-2.5361,-2.5373,-2.5382,-2.5439,-2.5457,-2.5429,-2.5526,-2.5503,-2.551,-2.5512,-2.552,-2.5526,-2.552,-2.5413,0,0,0,0,0,-2.5134,-2.5175,-2.521,-2.5264,-2.5279,-2.5302,-2.5326,-2.5332,-2.5364,-2.5377,-2.5401,-2.5432,-2.5471,-2.5496,-2.5534,-2.5598,-2.5606,-2.5625,-2.5631,-2.5636,-2.5642,-2.5675,-2.5684,-2.5591,-2.5591,-2.5591,0,0,-2.5157,-2.5185,-2.521,-2.5267,-2.5292,-2.5333,-2.5313,-2.5357,-2.5387,-2.5384,-2.5439,-2.5457,-2.5492,-2.5552,-2.558,-2.5569,-2.5669,-2.5641,-2.5645,-2.5648,-2.568,-2.5689,-2.5697,-2.5594,-2.5593,-2.5593,0,0,-2.5218,-2.5244,-2.5291,-2.5316,-2.5354,-2.5369,-2.538,-2.5417,-2.5429,-2.5484,-2.5482,-2.5517,-2.5585,-2.561,-2.5631,-2.57,-2.5696,-2.5712,-2.5743,-2.5775,-2.5782,-2.5789,-2.5812,-2.582,-2.5718,-2.5718,-2.5718,0,-2.5241,-2.5303,-2.5315,-2.536,-2.5384,-2.5383,-2.543,-2.5454,-2.5502,-2.5518,-2.5506,-2.5589,-2.5613,-2.5678,-2.5695,-2.5713,-2.5725,-2.5707,-2.578,-2.5787,-2.5793,-2.5815,-2.5824,-2.5719,-2.5719,-2.5719,-2.5719,0,-2.5328,-2.5371,-2.5404,-2.5451,-2.5479,-2.5525,-2.5543,-2.557,-2.5573,-2.5588,-2.5643,-2.5672,-2.5715,-2.5731,-2.5735,-2.5796,-2.5788,-2.5778,-2.5755,-2.5804,-2.5824,-2.5833,-2.5722,-2.5721,-2.5721,-2.572,0,0,-2.5401,-2.5453,-2.5464,-2.5485,-2.5526,-2.5559,-2.5604,-2.5646,-2.5668,-2.5701,-2.5738,-2.5794,-2.5785,-2.5809,-2.5816,-2.5844,-2.5895,-2.583,-2.5831,-2.584,-2.5962,-2.5969,-2.5978,-2.5893,-2.5894,-2.5896,-2.5959,0,-2.5465,-2.5545,-2.5556,-2.5626,-2.5665,-2.5664,-2.5703,-2.5732,-2.5747,-2.5781,-2.5797,-2.5837,-2.5822,-2.5836,-2.5865,-2.5883,-2.5919,-2.5879,-2.5926,-2.5927,-2.5916,-2.599,-2.5997,-2.6055,-2.5967,-2.5969,-2.597,0,-2.5551,-2.5586,-2.566,-2.5694,-2.5711,-2.5746,-2.5784,-2.5818,-2.585,-2.5859,-2.5885,-2.5888,-2.5932,-2.5908,-2.5969,-2.5941,-2.5961,-2.5972,-2.5975,-2.5979,-2.5951,-2.5995,-2.6074,-2.6082,-2.5983,-2.5982,-2.5981,0,-2.5594,-2.566,-2.5713,-2.573,-2.5772,-2.5796,-2.5815,-2.5845,-2.5869,-2.5903,-2.5918,-2.5956,-2.5977,-2.6006,-2.6018,-2.5999,-2.6078,-2.6055,-2.6085,-2.6085,-2.6101,-2.61,-2.6184,-2.6116,-2.6115,-2.6115,-2.6115,0,-2.5665,-2.571,-2.5733,-2.5765,-2.5814,-2.5827,-2.5875,-2.5893,-2.5919,-2.5954,-2.5955,-2.5987,-2.6002,-2.6036,-2.6046,-2.6094,-2.6104,-2.6111,-2.6113,-2.611,-2.6109,-2.6123,-2.6119,-2.6118,-2.6117,-2.6117,-2.6116,0,-2.5722,-2.5739,-2.5796,-2.5831,-2.584,-2.5875,-2.5904,-2.5935,-2.5949,-2.5993,-2.6003,-2.6026,-2.6066,-2.6081,-2.613,-2.6136,-2.6191,-2.6191,-2.6181,-2.6181,-2.621,-2.6206,-2.6305,-2.6318,-2.6242,-2.6243,-2.6244,0,-2.5765,-2.5799,-2.5838,-2.5861,-2.588,-2.5918,-2.5942,-2.5955,-2.598,-2.6018,-2.6044,-2.6084,-2.6116,-2.618,-2.62,-2.6236,-2.6236,-2.6268,-2.6241,-2.6237,-2.6235,-2.6232,-2.6235,-2.6272,-2.6273,-2.6274,-2.6274,0,-2.5839,-2.5846,-2.5881,-2.592,-2.5949,-2.5979,-2.6009,-2.6028,-2.6045,-2.6073,-2.6114,-2.6139,-2.6188,-2.6227,-2.6265,-2.6283,-2.6281,-2.6283,-2.6291,-2.6289,-2.6281,-2.6284,-2.6193,-2.628,-2.6279,-2.6279,-2.6279,-2.6279,-2.589,-2.592,-2.5951,-2.599,-2.6014,-2.6041,-2.6071,-2.6089,-2.6123,-2.6165,-2.617,-2.6214,-2.6243,-2.6293,-2.6312,-2.6346,-2.6337,-2.635,-2.6353,-2.6356,-2.6357,-2.6276,-2.6353,-2.6353,-2.6353,-2.6352,-2.6352,0,-2.5963,-2.5983,-2.6019,-2.606,-2.609,-2.6086,-2.6119,-2.6144,-2.6182,-2.621,-2.6242,-2.6288,-2.6325,-2.6348,-2.6385,-2.6408,-2.6408,-2.6417,-2.6415,-2.6419,-2.6364,-2.6352,-2.6416,-2.6416,-2.6416,-2.6416,-2.6416,-2.6416,-2.6004,-2.6054,-2.6064,-2.6125,-2.6145,-2.6188,-2.6206,-2.6231,-2.6253,-2.6304,-2.6336,-2.635,-2.6376,-2.6414,-2.6448,-2.6454,-2.6467,-2.6477,-2.6481,-2.6429,-2.6423,-2.6416,-2.6405,-2.648,-2.648,-2.6533,-2.6534,-2.6534]}]]